Weather History for Panama City, FL

Change the Weather History Date:

Sunday, July 7, 2013

  Actual Average Record
Temperature  
Mean Temperature 80 °F -  
Max Temperature 88 °F - 93 °F (2011)
Min Temperature 72 °F - 68 °F (2014)
Degree Days  
Heating Degree Days 0    
Cooling Degree Days 15    
Growing Degree Days 30 (Base 50)    
Moisture  
Dew Point 72 °F    
Average Humidity 77    
Maximum Humidity 94    
Minimum Humidity 59    
Precipitation  
Precipitation T in - 0.00 in (2014)
Month to date precipitation  
Year to date precipitation  
Sea Level Pressure  
Sea Level Pressure 30.11 in    
Wind  
Wind Speed 4 mph (East)    
Max Wind Speed 15 mph    
Max Gust Speed 24 mph    
Visibility 8 miles    
Events Fog    
T = Trace of Precipitation, MM = Missing Value Source: NWS Daily Summary

Daily Weather History Graph

Daily Weather History Graph

Search for Another Location

Airport:

Trip Planner

Search our weather history database for the weather conditions in past years. The results will help you decide how hot, cold, wet, or windy it might be!

Date:

Astronomy

Jul. 07, 2013 Rise Set
Actual Time 6:47 AM EDT 8:48 PM EDT
Civil Twilight 6:20 AM EDT 9:15 PM EDT
Nautical Twilight 5:47 AM EDT 9:49 PM EDT
Astronomical Twilight 5:11 AM EDT 10:24 PM EDT
Moon 6:18 AM EDT (7/7) 8:17 PM EDT (7/7)
Length of Visible Light 14h 55m
Length of Day
14h 01m
Waning Crescent, 0% of the Moon is Illuminated
Jul 7
Waning Crescent
Jul 8
New
Jul 15
First Quarter
Jul 22
Full
Jul 29
Last Quarter

Hourly Weather History & Observations

Time (EDT) Temp. Heat Index Dew Point Humidity Pressure Visibility Wind Dir Wind Speed Gust Speed Precip Events Conditions
12:53 AM 73.0 °F - 71.1 °F 93% 30.12 in 9.0 mi Calm Calm - N/A   Clear
1:53 AM 73.0 °F - 71.1 °F 93% 30.12 in 10.0 mi East 3.5 mph - N/A   Partly Cloudy
2:53 AM 73.0 °F - 71.1 °F 93% 30.10 in 10.0 mi East 4.6 mph - N/A   Clear
3:53 AM 73.0 °F - 70.0 °F 90% 30.09 in 10.0 mi ENE 4.6 mph - N/A   Clear
4:45 AM 73.4 °F - 69.8 °F 88% 30.06 in 9.0 mi ENE 5.8 mph - N/A   Scattered Clouds
4:53 AM 72.0 °F - 70.0 °F 93% 30.09 in 5.0 mi ENE 4.6 mph - N/A   Mostly Cloudy
5:04 AM 71.6 °F - 69.8 °F 94% 30.06 in 1.8 mi ENE 4.6 mph - N/A   Overcast
5:33 AM 71.6 °F - 69.8 °F 94% 30.06 in 2.0 mi ENE 4.6 mph - N/A   Overcast
5:53 AM 72.0 °F - 70.0 °F 93% 30.09 in 1.2 mi ENE 4.6 mph - N/A   Overcast
6:53 AM 72.0 °F - 70.0 °F 93% 30.10 in 0.2 mi ENE 5.8 mph - N/A Fog Fog
7:49 AM 73.4 °F - 71.6 °F 94% 30.09 in 2.0 mi ENE 3.5 mph - N/A   Mostly Cloudy
7:53 AM 73.0 °F - 72.0 °F 96% 30.12 in 2.0 mi ENE 3.5 mph - N/A   Scattered Clouds
7:57 AM 73.4 °F - 71.6 °F 94% 30.09 in 6.0 mi ENE 4.6 mph - N/A   Scattered Clouds
8:53 AM 75.0 °F - 73.0 °F 94% 30.14 in 10.0 mi East 4.6 mph - N/A   Scattered Clouds
9:53 AM 80.1 °F 85.1 °F 75.0 °F 85% 30.14 in 10.0 mi ENE 4.6 mph - N/A   Scattered Clouds
10:53 AM 82.9 °F 89.4 °F 73.9 °F 74% 30.15 in 10.0 mi SE 4.6 mph - N/A   Mostly Cloudy
11:53 AM 84.9 °F 92.1 °F 73.9 °F 69% 30.15 in 10.0 mi ESE 4.6 mph - N/A   Overcast
12:53 PM 84.0 °F 91.2 °F 73.9 °F 72% 30.14 in 10.0 mi SE 9.2 mph - N/A   Mostly Cloudy
1:53 PM 86.0 °F 93.0 °F 73.0 °F 65% 30.13 in 10.0 mi Variable 6.9 mph - 0.00 in   Scattered Clouds
2:53 PM 88.0 °F 94.7 °F 72.0 °F 59% 30.12 in 10.0 mi SSE 11.5 mph 17.3 mph N/A   Scattered Clouds
3:53 PM 86.0 °F 93.8 °F 73.9 °F 67% 30.12 in 10.0 mi SE 9.2 mph - N/A   Scattered Clouds
4:53 PM 87.1 °F 95.4 °F 73.9 °F 65% 30.11 in 10.0 mi South 10.4 mph - N/A   Scattered Clouds
5:53 PM 84.0 °F 90.2 °F 73.0 °F 69% 30.11 in 10.0 mi ESE 10.4 mph - N/A   Scattered Clouds
6:53 PM 84.0 °F 89.6 °F 72.0 °F 67% 30.11 in 10.0 mi SE 5.8 mph - N/A   Scattered Clouds
7:53 PM 82.0 °F 88.6 °F 75.0 °F 79% 30.12 in 10.0 mi Calm Calm - N/A   Scattered Clouds
8:53 PM 79.0 °F - 75.0 °F 88% 30.13 in 10.0 mi NNE 3.5 mph - N/A   Partly Cloudy
9:53 PM 79.0 °F - 75.0 °F 88% 30.15 in 10.0 mi Calm Calm - N/A   Partly Cloudy
10:53 PM 78.1 °F - 75.0 °F 90% 30.16 in 10.0 mi Calm Calm - N/A   Clear
11:53 PM 77.0 °F - 73.9 °F 90% 30.16 in 10.0 mi Calm Calm - N/A   Clear